Simultaneous Nadir Overpasses (SNOs) Predictions

Prediction of SNOs between GOES-16 and AQUA Satellite Orbit:

Table of predicted SNOs for the next 14.0 days since TLE Epoch: 6/26/2021
Index Date Time (GOES-16) GOES-16 Lat,Lon AQUA Lat,Lon Distance(km) Time Diff (sec)
1 06/26/2021 06:23:16 -0.04, -75.14 -0.62, -72.38 313.55 80
2 06/26/2021 18:44:40 0.05, -75.15 -0.47, -77.58 276.38 80
3 06/28/2021 18:35:08 0.05, -75.15 0.15, -74.62 60.37 80
4 06/30/2021 18:22:56 0.05, -75.16 0.77, -71.66 398.13 80
5 07/01/2021 06:44:12 -0.06, -75.16 0.31, -76.82 188.26 80
6 07/03/2021 06:29:20 -0.06, -75.18 -0.32, -73.86 150.35 80
7 07/03/2021 18:50:44 0.07, -75.19 -0.76, -79.05 439.42 80
8 07/05/2021 06:17:08 -0.06, -75.21 -0.95, -70.90 489.34 80
9 07/05/2021 18:38:32 0.07, -75.21 -0.13, -76.09 100.27 80
10 07/07/2021 18:29:00 0.07, -75.24 0.51, -73.13 239.15 80
11 07/08/2021 06:50:16 -0.08, -75.25 0.57, -78.29 346.35 80
